Volver al catálogo

COSMOS 2345

ActivoNavegaciónMEO
NORAD 24894·PAYLOAD·🇷🇺 Russia

Lanzado Aug 14, 1997 desde Baikonur Cosmodrome

Loading…

Próximos Pases (próximas 24 horas)

TLE

ActualizadoSource: Space-Track

Época: Sep 14, 2026, 10:47 UTC

1 24894U 97041A   26257.44953712 -.00000068  00000-0  00000-0 0  9990
2 24894  14.4101 357.0703 0164853 302.2811  87.7644  1.00385227106550

Sigue COSMOS 2345 en tiempo real con AllMySat

Download on the App Store